Leadville, CO

7:18 AM MST on February 10, 2016 (GMT -0700)
Lake County

Weather History for KLXV - June, 2013

Change the Weather History Date:

Friday, June 28, 2013

  Actual Average Record
Temperature  
Mean Temperature 61 °F -  
Max Temperature 79 °F 69 °F 80 °F (1990)
Min Temperature 43 °F 35 °F 28 °F (1985)
Degree Days  
Heating Degree Days 4 13  
Month to date heating degree days 354 455  
Since 1 June heating degree days 354 455  
Since 1 July heating degree days 11111 11209  
Cooling Degree Days 0 0  
Month to date cooling degree days 0 0  
Year to date cooling degree days 0 0  
Since 1 June cooling degree days 0 0  
Growing Degree Days 10 (Base 50)    
Moisture  
Dew Point 31 °F    
Average Humidity 41    
Maximum Humidity 70    
Minimum Humidity 12    
Precipitation  
Precipitation 0.00 in 0.03 in 0.23 in (1988)
Month to date precipitation 0.07 0.86  
Year to date precipitation 7.37 4.99  
Sea Level Pressure  
Sea Level Pressure 30.08 in    
Wind  
Wind Speed 7 mph (NNE)    
Max Wind Speed 5 mph    
Max Gust Speed 6 mph    
Visibility 10 miles    
Events Thunderstorm    
T = Trace of Precipitation, MM = Missing Value Source: NWS Daily Summary

Daily Weather History Graph

Daily Weather History Graph

Search for Another Location

Airport or City:

Trip Planner

Search our weather history database for the weather conditions in past years. The results will help you decide how hot, cold, wet, or windy it might be!

Date:

Astronomy

Jun. 28, 2013 Rise Set
Actual Time 5:41 AM MDT 8:35 PM MDT
Civil Twilight 5:09 AM MDT 9:07 PM MDT
Nautical Twilight 4:28 AM MDT 9:48 PM MDT
Astronomical Twilight 3:41 AM MDT 10:35 PM MDT
Moon No Moon Rise 11:49 AM MDT (6/28)
Length of Visible Light 15h 58m
Length of Day
14h 54m
Waning Gibbous, 65% of the Moon is Illuminated
Jun 28
Waning Gibbous
Jun 29
Last Quarter
Jul 8
New
Jul 15
First Quarter
Jul 22
Full

Hourly Weather History & Observations

Time (MDT) Temp. Windchill Dew Point Humidity Pressure Visibility Wind Dir Wind Speed Gust Speed Precip Events Conditions
12:53 AM 57.9 °F - 30.9 °F 36% 30.06 in 10.0 mi South 5.8 mph - N/A   Clear
1:53 AM 51.1 °F - 32.0 °F 48% 30.12 in 10.0 mi NE 3.5 mph - N/A   Clear
2:53 AM 52.0 °F - 33.1 °F 49% 30.10 in 10.0 mi NE 4.6 mph - N/A   Clear
3:53 AM 51.1 °F - 35.1 °F 54% 30.08 in 10.0 mi ENE 4.6 mph - N/A   Clear
4:53 AM 50.0 °F - 35.1 °F 57% 30.09 in 10.0 mi Calm Calm - N/A   Clear
5:53 AM 43.0 °F 39.5 °F 34.0 °F 71% 30.12 in 10.0 mi NE 5.8 mph - N/A   Clear
6:53 AM 50.0 °F - 37.0 °F 61% 30.10 in 10.0 mi Calm Calm - N/A   Clear
7:53 AM 59.0 °F - 39.0 °F 48% 30.06 in 10.0 mi NNW 3.5 mph - N/A   Clear
8:53 AM 61.0 °F - 37.9 °F 42% 30.07 in 10.0 mi Calm Calm - N/A   Clear
9:53 AM 69.1 °F - 37.0 °F 31% 30.03 in 10.0 mi West 3.5 mph - N/A   Clear
10:53 AM 73.0 °F - 25.0 °F 17% 30.01 in 10.0 mi NW 4.6 mph - N/A   Clear
11:53 AM 75.9 °F - 19.0 °F 12% 30.04 in 10.0 mi NW 9.2 mph - N/A   Clear
12:53 PM 75.9 °F - 21.9 °F 13% 30.00 in 10.0 mi Variable 5.8 mph 19.6 mph N/A   Partly Cloudy
1:53 PM 78.1 °F - 24.1 °F 14% 30.00 in 6.0 mi ENE 11.5 mph 21.9 mph N/A   Haze
2:29 PM 75.2 °F - 26.6 °F 17% 30.60 in 10.0 mi NNE 8.1 mph - N/A Thunderstorm Thunderstorm
2:44 PM 75.2 °F - 24.8 °F 15% 30.59 in 10.0 mi Calm Calm - N/A   Scattered Clouds
2:53 PM 75.0 °F - 26.1 °F 16% 30.00 in 10.0 mi NNE 8.1 mph - N/A   Partly Cloudy
3:53 PM 78.1 °F - 21.0 °F 12% 29.97 in 10.0 mi NNW 16.1 mph 25.3 mph N/A   Clear
4:53 PM 77.0 °F - 25.0 °F 15% 29.99 in 10.0 mi North 23.0 mph 32.2 mph N/A   Partly Cloudy
5:53 PM 73.9 °F - 28.0 °F 18% 30.03 in 10.0 mi North 18.4 mph 28.8 mph N/A   Clear
6:53 PM 73.0 °F - 27.0 °F 18% 29.99 in 10.0 mi North 13.8 mph 19.6 mph N/A   Clear
7:53 PM 69.1 °F - 34.0 °F 27% 30.00 in 10.0 mi Variable 3.5 mph - N/A   Mostly Cloudy
8:53 PM 63.0 °F - 36.0 °F 37% 30.03 in 10.0 mi South 15.0 mph - N/A   Partly Cloudy
9:53 PM 61.0 °F - 35.1 °F 38% 30.00 in 10.0 mi South 9.2 mph - N/A   Clear
10:53 PM 55.9 °F - 37.0 °F 49% 30.01 in 10.0 mi South 5.8 mph - N/A   Clear
11:53 PM 54.0 °F - 37.9 °F 55% 30.02 in 10.0 mi Calm Calm - N/A   Mostly Cloudy